MIDAS 4 DEB, 45467

Orbit data source: Space-Track

MIDAS 4 DEB, 45467 is space debris in LEO originally from a launch on Sat, 21 Oct 1961 UTC launched from the Air Force Western Test Range (AFWTR). Debris objects in space refer to the collection of defunct objects orbiting the Earth. Examples of debris include non-operational satellites, rocket bodies, and fragments generated from explosions, collisions, or faulty payload assembly.

Loading next visibility...
Identifier
45467, 1961-028M
Orbit
LEO
Last TLE update
3 months ago
Origin
Manufacturer
Unknown
Mission
Spacecraft
Bus & Motor
Unknown
Mass
Unknown
Launch date (UTC)
1961-10-21 (64 years ago)
Launch vehicle
Unknown
Launch site
Air Force Western Test Range (AFWTR)
Object type
Payload
Rocket body
Debris
Shape & HBR
Unknown
Radar Cross Section
Medium (>0.1 m² and <1 m²)

Expand to show TLE details & history

TLE from 3 months ago
0 MIDAS 4 DEB
1 45467U 61028M   25109.63283500 -.00000113  00000-0 -32453-1 0  9992
2 45467  95.8328 190.3350 0905562 151.7473 213.5700  8.70606683304323
Epoch: 2025-04-19T15:11Z
TLE epoch observation values (Epoch: 2025-04-19T15:11:16.943Z)
Latitude
-0.00006°
Longitude
114.54117°
Altitude
4,380.991 km
Speed
5.846 km/s
True Right ascension
12h 41m 20s
True Declination
0° 00' 00"
Sunlit
Object was in full shadow at epoch
Visualization orbit readout
Latitude
-37.34076°
Longitude
136.76387°
Altitude
3,791.585 km
Speed
6.206 km/s
Apparent Right ascension
13h 10m 02s
Apparent Declination
-39° 51' 24"
Sunlit
Object is in full shadow
Visualization observer readout
Local Sidereal Time
23:28:28
Azimuth
261.95° W
Elevation
-70.581°
Doppler factor
1
Orbital elements
Apogee altitude
4,504.68 km
Perigee altitude
2,697.333 km
Semi-major axis
9,979.144 km
Eccentricity
0.09056
Inclination
95.8328°
RAAN
190.335°
Arg. of periapsis
151.7473°
True anomaly
Unknown
Mean anomaly
213.57°
Eccentric anomaly
Unknown
Mean motion
2.17722 °/min
Orbital period
165.35 mins
BSTAR
-0.032453
Loading maneuver chart data...
Loading SW <> Apogee altitude chart data...
Loading historical data...
Loading historical data...
Loading historical data...
Loading historical data...
Loading historical data...
Loading historical data...
Loading historical data...

MIDAS 4 DEB Visibility forecast

Observer location: undefined°, undefined°

Span
Click to sort rows by Start time (UTC) header in descending order
Start Az.
Max El. time (UTC)
Max El. Az.
Max El.
End time (UTC)
End Az.
30 mins2025-07-11 12:10:28.243Z21.38° NNE2025-07-11 12:23:28.243Z87.578° E35.023°2025-07-11 12:40:28.243Z158.783° S
29 mins2025-07-11 14:54:28.243Z359.575° N2025-07-11 15:06:28.243Z293.929° NW38.358°2025-07-11 15:23:28.243Z222.828° SW
18 mins2025-07-11 22:40:28.243Z98.158° ESE2025-07-11 22:49:28.243Z54.877° ENE22.769°2025-07-11 22:58:28.243Z9.494° NNE
27 mins2025-07-12 01:16:28.243Z173.848° S2025-07-12 01:30:28.243Z254.611° W44.466°2025-07-12 01:43:28.243Z348.518° N
8 mins2025-07-12 04:13:28.243Z272.63° WNW2025-07-12 04:16:28.243Z285.965° WNW12.092°2025-07-12 04:21:28.243Z308.567° NW
4 mins2025-07-12 10:24:28.243Z65.259° ENE2025-07-12 10:26:28.243Z72.882° E10.557°2025-07-12 10:28:28.243Z80.288° E
|